www.pogodaiklimat.ru

Погода и климат >> Архив погоды >> Корея >> Перевал Daegwallyeong


ПОГОДА на Перевале Daegwallyeong

  • Прогноз погоды на Перевале Daegwallyeong
  • Монитор погоды на Перевале Daegwallyeong

АРХИВ ПОГОДЫ на Перевале Daegwallyeong

Время (UTC), дата Ветер
(напр.,м/с)
 
Видим.   Явления Облачность Т
(С)
Тd
(С)
f
(%)
Тe
(С)
Тes
(С)
Комфортность P
(гПа)
Po
(гПа)
Тmin
(С)
Tmax
(С)
R
(мм)
R24
(мм)
S
(см)
03 14.07 В 2 3000 м 9//
[]
+18.2 +17.5 96 +19 +30 1004.3 918.6
06 14.07 В 2 1300 м 9/0
[]
+17.6 +16.9 96 +18 +26 1003.2 918.1
09 14.07 15 км н/о +17.7 +16.7 94 +18 +18 1003.6 918.5
12 14.07 В 2 10 км 8/8 300 м
[]
+17.2 +16.3 94 +18 +18 1005.6 920.1 +20.2 0.0
15 14.07 9000 м н/о +17.1 +16.2 94 +18 +18 1006.3 920.7
18 14.07 8000 м 8/8 300 м
[]
+16.8 +15.9 94 +17 +17 1006.2 920.4
21 14.07 штиль 0 9000 м 9// 300 м
[]
+16.7 +16.0 96 +17 +17 1007.3 921.4
00 15.07 В 3 13 км ?/? +18.3 +16.7 90 +19 +19 1008.4 922.4 +16.5 0.0
03 15.07 ЮВ 1 16 км 9// 300 м
[]
+20.5 +17.5 83 +25 +38 комфорт 1007.9 922.9
06 15.07 В 3 9000 м 9/9 200 м
[]
+19.7 +18.0 90 +23 +24 комфорт 1007.7 922.4
09 15.07 2400 м н/о +18.3 +17.8 97 +19 +20 1008.3 922.3
12 15.07 штиль 0 2200 м ?/? +17.6 +17.1 97 +18 +18 1009.7 924.0 +21.7 2
15 15.07 300 м н/о +17.2 +16.7 97 +18 +18 1010.7 924.7
18 15.07 штиль 0 3900 м 9/0
[]
+16.8 +16.3 97 +17 +17 1010.5 924.4
21 15.07 2200 м н/о +17.2 +16.7 97 +17 +17 1011.2 925.2
00 16.07 В 4 1700 м 9/0
[]
+18.0 +17.3 96 +18 +22 1011.7 926.0 +16.8 0.0
03 16.07 13 км н/о +22.0 +18.5 81 +27 +28 душно 1010.7 926.2
06 16.07 В 4 17 км 9/9 200 м
[]
+20.7 +18.4 87 +25 +26 комфорт 1011.1 926.0
09 16.07 В 2 13 км 10// 100 м
[]
+19.1 +18.1 94 +21 +22 комфорт 1011.8 925.9
12 16.07 В 2 2300 м 6/0
[]
+18.0 +17.5 97 +19 +19 1012.0 926.3 +22.2 0.0
15 16.07 7000 м н/о +18.1 +17.2 94 +18 +18 1013.8 927.2
18 16.07 З 1 9000 м 6/6 200 м
[]
+17.8 +16.8 94 +19 +19 1012.3 926.5
21 16.07 10 км н/о +17.7 +16.8 94 +18 +18 1012.9 927.0
00 17.07 З 2 15 км 9/9 200 м
[]
+21.3 +18.2 82 +26 +27 душно 1011.5 926.6 +17.3 0.0
03 17.07 В 2 19 км 8/6 600 м
[]
+24.4 +20.7 80 +30 +37 очень
душно
1010.6 926.3
06 17.07 В 3 9000 м ?/? +21.7 +19.9 90 +27 +27 душно 1010.1 925.5
09 17.07 В 2 11 км 8/1 1500 м
[]
+22.3 +20.3 88 +29 +30 очень
душно
1009.0 924.8
12 17.07 штиль 0 4300 м ?/? +19.8 +19.1 96 +23 +23 комфорт 1011.5 925.9 +24.6 1
15 17.07 штиль 0 н/о ?/? +18.7 +18.2 97 +20 +20 1011.6 925.5
18 17.07 СЗ 2 3300 м ?/? +18.6 +18.1 97 +20 +20 1011.4 925.3
21 17.07 З 3 3500 м 10/1 1000 м
[]
+18.6 +18.1 97 +20 +20 1011.3 925.2
00 18.07 З 5 13 км 5/5 200 м
[]
+22.6 +18.7 79 +28 +31 душно 1009.0 924.9 +18.3 0.0
03 18.07 Ю 2 18 км 8/4 600 м
[]
+25.2 +18.8 68 +30 +38 душно 1007.7 924.0
06 18.07 В 3 19 км 8/0
[]
+24.8 +19.6 73 +30 +37 душно 1006.8 923.0
09 18.07 17 км н/о +23.8 +20.1 80 +29 +30 душно 1006.4 922.3
12 18.07 СЗ 1 7000 м 8/0
[]
+20.1 +19.2 95 +25 +25 комфорт 1008.3 923.1 +25.6
15 18.07 5000 м н/о +18.1 +17.4 96 +19 +19 1010.2 923.9
18 18.07 штиль 0 4600 м 4/0
[]
+17.1 +16.6 97 +17 +17 1008.7 922.9
21 18.07 штиль 0 100 м 1/1
[]
+16.2 +15.7 97 +16 +16 1009.9 923.5
00 19.07 В 2 14 км ясно +24.8 +19.8 74 +30 +41 душно 1007.1 923.3 +15.8
03 19.07 СВ 3 13 км 8/3 300 м
[]
+25.0 +20.4 76 +31 +39 очень
душно
1007.3 923.5
06 19.07 В 3 16 км 8/8 300 м
[]
+24.3 +20.6 80 +30 +32 очень
душно
1006.8 922.8
09 19.07 В 3 11 км 10// 600 м
[]
+22.8 +20.7 88 +30 +31 очень
душно
1006.6 922.8
12 19.07 штиль 0 3200 м ?/? +21.2 +20.6 96 +26 +26 душно 1008.2 923.5 +25.7 6
15 19.07 штиль 0 2500 м 9/8
[]
+20.4 +19.9 97 +24 +24 комфорт 1008.6 923.5
18 19.07 штиль 0 3400 м 9/0
[]
+20.1 +19.6 97 +23 +23 комфорт 1008.2 923.0 0.1
21 19.07 В 1 100 м 10//
[]
+19.7 +19.2 97 +24 +24 комфорт 1007.9 922.6
00 20.07 В 6 6000 м ?/? +19.2 +18.7 97 +21 +21 комфорт 1007.4 921.9 +19.2 4
03 20.07 В 7 16 км 10// 200 м
[]
+20.7 +20.0 96 +25 +25 комфорт 1004.9 920.3
06 20.07 В 2 11 км ?/? +21.4 +20.5 95 +27 +34 душно 1002.5 918.4 5
09 20.07 В 2 20 км 9// 200 м
[]
+21.1 +20.4 96 +26 +27 душно 1002.1 917.9
12 20.07 В 7 20 км ?/? +20.6 +19.7 95 +25 +25 комфорт 1001.7 917.3 +21.7 9
15 20.07 В 2 4300 м 9//
[]
+20.3 +19.8 97 +25 +25 комфорт 1000.7 916.3
18 20.07 В 1 15 км ?/? +20.2 +19.7 97 +25 +25 комфорт 998.8 914.5
21 20.07 штиль 0 4200 м 10// 300 м
[]
+20.2 +19.7 97 +24 +24 комфорт 998.4 914.1

 

Местоположение метеостанции Перевал Daegwallyeong (Корея): широта 37.68 долгота 128.76 высота над уровнем моря 844 м.

В архиве по умолчанию представлена погода на Перевале Daegwallyeong за последнюю неделю. Архивные данные за месяц целиком и за предыдущие месяцы, начиная с января 2011 года, Вы можете получить, выбрав интересующий диапазон дат из раскрывающегося списка и нажав кнопку "Ввод!".


*Определитесь, кто Вы:
робот инопланетянин человек

Внимание! Время в таблицах - всемирное. Для получения местного времени необходимо прибавить поправку, которая равна 9 ч.

Смотрите также архив погоды в соседних городах и на ближайших метеорологических станциях:

Погода в Канныне (Корея) (15 км)
Погода в Донгхэ (Корея) (38 км)
Погода в Йонволе (Корея) (62 км)
Погода в Сокчхо (Корея) (66 км)
Погода в Вонджу (Корея) (81 км)
Погода в Чхунчхоне (Корея) (94 км)
Погода в Чунчоне (Корея) (95 км)
Погода в Ульджине (Корея) (97 км)
Погода в Букчунчеоне (Корея) (119 км)
Погода в Ичхоне (Корея) (122 км)

Пояснения к столбцам:

Ветер - указаны скорость ветра в м/с - средняя за 10 мин, порывы в срок и между сроками (в фигурных скобках) и направление, откуда дует ветер: С - северный, СВ - северо-восточный, В - восточный, ЮВ - юго-восточный, Ю - южный, ЮЗ - юго-западный, З - западный, СЗ - северо-западный.
Видимость - горизонтальная дальность видимости в метрах или километрах. При видимости от 1 до 10 км при отсутствии осадков обычно наблюдается дымка, при ухудшении видимости до 1 км и менее - туман. В сухую погоду видимость может ухудшаться дымом, пылью или мглою.
Явления - указаны атмосферные явления, наблюдавшиеся в срок или в последний час перед сроком; фигурными скобками обозначены явления, наблюдавшиеся между сроками (за 1-3 часа до срока); квадратными скобками обозначены град или гололедные отложения с указанием их диаметра в мм.
Облачность - указаны через наклонную черту общая и нижняя облачность в баллах и высота нижней границы облаков в метрах; квадратными скобками обозначены формы облаков: Ci - перистые, Cs - перисто-слоистые, Cc - перисто-кучевые, Ac - высококучевые, As - высокослоистые, Sc - слоисто-кучевые, Ns - слоисто-дождевые, Cu - кучевые, Cb - кучево-дождевые. Подробнее классификацию облаков см. в Атласе облаков (PDF).
T - Температура воздуха - температура, измеренная на высоте 2 м над землей.
Td - Температура точки росы - температура, при понижении до которой содержащийся в воздухе водяной пар достигнет насыщения.
f - Относительная влажность воздуха - влажноcть воздуха, измеренная на высоте 2 м над землей.
Te - Эффективная температура - температура, которую ощущает одетый по сезону человек в тени. Характеристика душности погоды. При расчете учитывается влияние влажности воздуха и скорости ветра на теплоощущения человека.
Tes - Эффективная температура на солнце - температура, которую ощущает человек, с поправкой на солнечный нагрев. Характеристика знойности погоды. Зависит от высоты солнца над горизонтом, облачности и скорости ветра. Ночью, в пасмурную погоду, а также при ветре 12 м/с и более поправка равна нулю.
P - Атмосферное давление - приведенное к уровню моря атмосферное давление.
Po - Атмосферное давление - измеренное на уровне метеостанции атмосферное давление.
Tmin - Минимальная температура - минимум температуры воздуха на высоте 2 м над землей.
Tmax - Максимальная температура - максимум температуры воздуха на высоте 2 м над землей.
R - Количество осадков - Количество выпавших осадков за период времени, мм. При наведении курсора мыши на число - период времени, за который выпало указанное количество осадков.
R24 - Количество осадков - Количество выпавших осадков за 24 часа, мм.
S - Снежный покров - Высота снежного покрова, см. При наведении курсора мыши на число - состояние снежного покрова и степень покрытия местности в баллах.